DELTA 1 R/B, 341

Orbit data source: Space-Track

DELTA 1 R/B, 341 is space debris in LEO originally from a launch on Tue, 10 Jul 1962 UTC launched from the Air Force Eastern Test Range (AFETR). Debris objects in space refer to the collection of defunct objects orbiting the Earth. Examples of debris include non-operational satellites, rocket bodies, and fragments generated from explosions, collisions, or faulty payload assembly.

Loading next visibility...
Identifier
341, 1962-029B
Orbit
LEO
Country
Flag of USUS
Related business
Manufacturer
ABL
Mission
Spacecraft
Bus & Motor
ALTAIR, Unknown motor
Mass
24 kg wet, 24 kg dry
Launch date (UTC)
1962-07-10 (64 years ago)
Launch vehicle
Unknown
Launch site
Air Force Eastern Test Range (AFETR)
Object type
Payload
Rocket body
Debris
Shape & HBR
Unknown
Radar Cross Section
Medium (>0.1 m² and <1 m²)

Expand to show TLE details & history
Last TLE update: 3 days ago

TLE from 3 days ago
0 DELTA 1 R/B
1 00341U 62029B   26160.89360620  .00000020  00000-0  30205-3 0  9991
2 00341  44.8005 229.0384 2425516 246.4479 311.3402  9.14330713134463
Epoch: 2026-06-09T21:26Z
TLE epoch observation values (Epoch: 2026-06-09T21:26:47.575Z)
Latitude
5.17321°
Longitude
-176.12602°
Altitude
2,138.523 km
Speed
7.237 km/s
True Right ascension
02h 55m 19s
True Declination
5° 08' 51"
Sunlit
Object was in daylight at epoch
Visualization orbit readout
Latitude
Unknown
Longitude
Unknown
Altitude
Unknown
Speed
Unknown
Apparent Right ascension
Unknown
Apparent Declination
Unknown
Sunlit
N/A
Visualization observer readout
Local Sidereal Time
14:25:04
Azimuth
Unknown
Elevation
Unknown
Doppler factor
Unknown
Orbital elements
Apogee altitude
5,627.125 km
Perigee altitude
940.164 km
Semi-major axis
9,661.781 km
Eccentricity
0.24255
Inclination
44.8005°
RAAN
229.0384°
Arg. of periapsis
246.4479°
True anomaly
286.16597°
Mean anomaly
311.3402°
Eccentric anomaly
299.21026°
Mean motion
2.28537 °/min
Orbital period
157.52 mins
BSTAR
0.00030205
Loading maneuver chart data...
Computing Atmospheric mass density...
Loading historical data...
Loading historical data...
Loading historical data...
Loading historical data...
Loading historical data...
Loading historical data...
Loading historical data...
Other satellites on launch #29 in the year 1962 (1962-07-10 UTC)

Documentation

Showing up to 5 results
|